,,PA_Meas_PMT16A,,PR_Meas_QMR101_102,,RH_Meas_QMH101,,SR_Meas_QMS101,,TA_Meas_QMH101,,GenWind,,GenWind,
time,status,PA,status,PR,status,RH,status,SR,status,TA,status,DirAvg,status,SpdAvg,
2016-04-08, 07:45:04,VALID,918.495,VALID,0,VALID,104,VALID,96.2673,VALID,21.5347,VALID,184,VALID,0,
2016-04-08, 07:46:04,VALID,918.488,VALID,0,VALID,104,VALID,108.516,VALID,21.6144,VALID,183,VALID,0,
2016-04-08, 07:47:04,VALID,918.49,VALID,0,VALID,104,VALID,125.921,VALID,21.6339,VALID,178,VALID,0,
2016-04-08, 07:48:04,VALID,918.523,VALID,0,VALID,104,VALID,128.822,VALID,21.6518,VALID,162,VALID,0,
2016-04-08, 07:49:04,VALID,918.556,VALID,0,VALID,104,VALID,131.723,VALID,21.6713,VALID,114,VALID,0,
2016-04-08, 07:50:04,VALID,918.583,VALID,0,VALID,104,VALID,131.615,VALID,21.6323,VALID,133,VALID,0,
2016-04-08, 07:51:04,VALID,918.614,VALID,0,VALID,104,VALID,135.268,VALID,21.712,VALID,115,VALID,0,
2016-04-08, 07:52:04,VALID,918.641,VALID,0,VALID,104,VALID,131.83,VALID,21.751,VALID,104,VALID,0,
2016-04-08, 07:53:04,VALID,918.611,VALID,0,VALID,104,VALID,120.119,VALID,21.7883,VALID,120,VALID,0,
2016-04-08, 07:54:04,VALID,918.608,VALID,0,VALID,104,VALID,106.582,VALID,21.8681,VALID,120,VALID,0,
2016-04-08, 07:57:04,VALID,918.635,VALID,0,VALID,104,VALID,121.946,VALID,21.7705,VALID,91,VALID,0,
2016-04-08, 07:58:04,VALID,918.672,VALID,0,VALID,104,VALID,132.045,VALID,21.751,VALID,98,VALID,0,
2016-04-08, 07:59:04,VALID,918.672,VALID,0,VALID,104,VALID,136.987,VALID,21.751,VALID,109,VALID,0,
2016-04-08, 08:00:04,VALID,918.667,VALID,0,VALID,104,VALID,139.459,VALID,21.7883,VALID,56,VALID,0,
2016-04-08, 08:01:04,VALID,918.673,VALID,0,VALID,104,VALID,129.896,VALID,21.7705,VALID,125,VALID,0,
2016-04-08, 08:02:04,VALID,918.712,VALID,0,VALID,104,VALID,126.136,VALID,21.7705,VALID,118,VALID,0,
2016-04-08, 08:03:04,VALID,918.707,VALID,0,VALID,104,VALID,132.582,VALID,21.7493,VALID,141,VALID,0,
2016-04-08, 08:04:04,VALID,918.707,VALID,0,VALID,104,VALID,126.458,VALID,21.7705,VALID,95,VALID,0,
2016-04-08, 08:05:04,VALID,918.722,VALID,0,VALID,104,VALID,119.045,VALID,21.7705,VALID,85,VALID,0,
2016-04-08, 08:06:04,VALID,918.742,VALID,0,VALID,104,VALID,125.491,VALID,21.7705,VALID,45,VALID,0,
2016-04-08, 08:07:04,VALID,918.728,VALID,0,VALID,104,VALID,138.277,VALID,21.6924,VALID,48,VALID,0,
2016-04-08, 08:08:04,VALID,918.756,VALID,0,VALID,104,VALID,138.814,VALID,21.79,VALID,50,VALID,0,
2016-04-08, 08:09:04,VALID,918.758,VALID,0,VALID,104,VALID,140.103,VALID,21.7883,VALID,56,VALID,0,
2016-04-08, 08:10:04,VALID,918.751,VALID,0,VALID,104,VALID,139.996,VALID,21.7493,VALID,78,VALID,0,
2016-04-08, 08:11:04,VALID,918.793,VALID,0,VALID,104,VALID,141.07,VALID,21.79,VALID,91,VALID,0,
2016-04-08, 08:12:04,VALID,918.82,VALID,0,VALID,104,VALID,138.599,VALID,21.8274,VALID,71,VALID,0,
2016-04-08, 08:13:04,VALID,918.837,VALID,0,VALID,104,VALID,135.483,VALID,21.8859,VALID,97,VALID,0,
2016-04-08, 08:14:04,VALID,918.853,VALID,0,VALID,104,VALID,132.582,VALID,21.9266,VALID,97,VALID,0,
2016-04-08, 08:15:04,VALID,918.845,VALID,0,VALID,104,VALID,129.789,VALID,21.9444,VALID,101,VALID,0.506641,
2016-04-08, 08:16:04,VALID,918.817,VALID,0,VALID,104,VALID,125.706,VALID,21.9835,VALID,86,VALID,0.869922,
2016-04-08, 08:17:04,VALID,918.846,VALID,0,INVALID,109.007,VALID,124.739,VALID,22.003,VALID,117,VALID,0.428906,
2016-04-08, 08:18:04,VALID,918.813,VALID,0,INVALID,109.289,VALID,123.128,VALID,21.9656,VALID,122,VALID,0.179688,
2016-04-08, 08:19:04,VALID,918.816,VALID,0,INVALID,109.526,VALID,121.194,VALID,21.9054,VALID,110,VALID,1.54766,
2016-04-08, 08:20:04,VALID,918.8,VALID,0,INVALID,109.587,VALID,119.152,VALID,21.9249,VALID,105,VALID,0.00585938,
2016-04-08, 08:44:04,VALID,918.971,VALID,0,VALID,104,VALID,123.45,VALID,22.7836,VALID,87,VALID,0,
2016-04-08, 08:45:04,VALID,918.978,VALID,0,VALID,104,VALID,124.632,VALID,22.8634,VALID,87,VALID,0,
2016-04-08, 08:46:04,VALID,919.048,VALID,0,VALID,104,VALID,126.028,VALID,22.8794,VALID,87,VALID,0,
2016-04-08, 08:47:04,VALID,919.052,VALID,0,VALID,104,VALID,127.64,VALID,22.8794,VALID,91,VALID,0,
2016-04-08, 08:48:04,VALID,919.03,VALID,0,VALID,104,VALID,130.434,VALID,22.9397,VALID,101,VALID,0,
2016-04-08, 08:49:04,VALID,919.043,VALID,0,VALID,104,VALID,134.087,VALID,22.9397,VALID,121,VALID,0,
2016-04-08, 08:50:04,VALID,919.057,VALID,0,VALID,104,VALID,137.74,VALID,22.9983,VALID,162,VALID,0,
2016-04-08, 08:51:04,VALID,919.084,VALID,0,VALID,104,VALID,141.822,VALID,23.016,VALID,160,VALID,0,
2016-04-08, 08:52:04,VALID,919.066,VALID,0,VALID,104,VALID,146.335,VALID,23.0373,VALID,160,VALID,0,
2016-04-08, 08:53:04,VALID,919.056,VALID,0,VALID,104,VALID,151.707,VALID,23.0568,VALID,160,VALID,0,
2016-04-08, 08:54:04,VALID,919.061,VALID,0,VALID,104,VALID,158.153,VALID,23.0356,VALID,157,VALID,0,
2016-04-08, 08:55:04,VALID,919.037,VALID,0,VALID,104,VALID,165.03,VALID,23.0568,VALID,158,VALID,0,
2016-04-08, 08:56:04,VALID,919.016,VALID,0,VALID,104,VALID,171.369,VALID,23.1136,VALID,187,VALID,0,
2016-04-08, 08:57:04,VALID,919.007,VALID,0,VALID,104,VALID,175.989,VALID,23.1136,VALID,105,VALID,0,
2016-04-08, 08:58:04,VALID,918.993,VALID,0,VALID,104,VALID,178.245,VALID,23.0356,VALID,113,VALID,0,
2016-04-08, 08:59:04,VALID,918.996,VALID,0,VALID,104,VALID,178.567,VALID,22.9983,VALID,113,VALID,0,
2016-04-08, 09:00:04,VALID,919.063,VALID,0,VALID,104,VALID,178.245,VALID,23.0356,VALID,104,VALID,0,
2016-04-08, 09:01:04,VALID,919.066,VALID,0,VALID,104,VALID,178.03,VALID,23.1544,VALID,104,VALID,0,
2016-04-08, 09:02:04,VALID,919.088,VALID,0,VALID,104,VALID,178.352,VALID,23.2307,VALID,104,VALID,0,
2016-04-08, 09:03:04,VALID,919.139,VALID,0,VALID,104,VALID,179.212,VALID,23.2911,VALID,120,VALID,0,
2016-04-08, 09:04:04,VALID,919.16,VALID,0,VALID,104,VALID,180.716,VALID,23.2893,VALID,71,VALID,0,
2016-04-08, 09:05:04,VALID,919.169,VALID,0,VALID,104,VALID,182.22,VALID,23.2502,VALID,128,VALID,0,
2016-04-08, 09:06:04,VALID,919.166,VALID,0,VALID,104,VALID,184.691,VALID,23.1917,VALID,136,VALID,0,
2016-04-08, 09:07:04,VALID,919.197,VALID,0,VALID,104,VALID,187.055,VALID,23.2698,VALID,138,VALID,0,
2016-04-08, 09:08:04,VALID,919.179,VALID,0,VALID,104,VALID,189.204,VALID,23.2502,VALID,109,VALID,0,
2016-04-08, 09:09:04,VALID,919.182,VALID,0,VALID,104,VALID,192.427,VALID,23.2502,VALID,82,VALID,0,
2016-04-08, 09:10:04,VALID,919.171,VALID,0,VALID,104,VALID,196.617,VALID,23.2893,VALID,82,VALID,0,
2016-04-08, 09:11:04,VALID,919.167,VALID,0,VALID,104,VALID,201.237,VALID,23.3674,VALID,82,VALID,0,
2016-04-08, 09:12:04,VALID,919.177,VALID,0,VALID,104,VALID,206.394,VALID,23.465,VALID,82,VALID,0,
2016-04-08, 09:13:04,VALID,919.175,VALID,0,VALID,104,VALID,216.386,VALID,23.5235,VALID,111,VALID,0,
2016-04-08, 09:14:04,VALID,919.156,VALID,0,VALID,104,VALID,225.412,VALID,23.5448,VALID,113,VALID,0,
2016-04-08, 09:15:04,VALID,919.134,VALID,0,VALID,103.991,VALID,234.866,VALID,23.662,VALID,114,VALID,0,
2016-04-08, 09:16:04,VALID,919.15,VALID,0,VALID,104,VALID,240.453,VALID,23.7791,VALID,113,VALID,0,
2016-04-08, 09:17:04,VALID,919.137,VALID,0,VALID,103.442,VALID,244.751,VALID,23.9158,VALID,82,VALID,0,
2016-04-08, 09:18:04,VALID,919.158,VALID,0,VALID,101.567,VALID,252.379,VALID,23.7791,VALID,78,VALID,0,
2016-04-08, 09:19:04,VALID,919.178,VALID,0,VALID,101.864,VALID,277.735,VALID,23.6815,VALID,70,VALID,0,
2016-04-08, 09:20:04,VALID,919.205,VALID,0,VALID,101.872,VALID,284.074,VALID,23.6406,VALID,70,VALID,0,
2016-04-08, 09:21:04,VALID,919.213,VALID,0,VALID,102.382,VALID,246.9,VALID,23.6992,VALID,70,VALID,0,
2016-04-08, 09:22:04,VALID,919.197,VALID,0,VALID,101.956,VALID,244.429,VALID,23.7578,VALID,112,VALID,0,
2016-04-08, 09:23:04,VALID,919.231,VALID,0,VALID,102.123,VALID,233.792,VALID,23.7578,VALID,132,VALID,0,
2016-04-08, 09:24:04,VALID,919.228,VALID,0,VALID,103.816,VALID,232.932,VALID,23.7986,VALID,92,VALID,0,
2016-04-08, 09:25:04,VALID,919.206,VALID,0,VALID,103.335,VALID,234.651,VALID,23.8358,VALID,140,VALID,0,
2016-04-08, 09:26:04,VALID,919.256,VALID,0,VALID,102.802,VALID,235.618,VALID,23.9335,VALID,176,VALID,0,
2016-04-08, 09:27:04,VALID,919.231,VALID,0,VALID,102.474,VALID,242.602,VALID,24.0115,VALID,174,VALID,0,
2016-04-08, 09:28:04,VALID,919.224,VALID,0,VALID,102.062,VALID,239.379,VALID,24.0311,VALID,143,VALID,0,
2016-04-08, 09:29:04,VALID,919.241,VALID,0,VALID,101.567,VALID,240.346,VALID,24.0506,VALID,201,VALID,0,
2016-04-08, 09:30:04,VALID,919.239,VALID,0,VALID,101.178,VALID,242.817,VALID,24.1092,VALID,201,VALID,0,
2016-04-08, 09:31:04,VALID,919.237,VALID,0,VALID,101.003,VALID,246.363,VALID,24.1677,VALID,192,VALID,0,
2016-04-08, 09:32:04,VALID,919.251,VALID,0,VALID,101.384,VALID,258.826,VALID,24.2458,VALID,177,VALID,0,
2016-04-08, 09:33:04,VALID,919.232,VALID,0,VALID,100.515,VALID,502.932,VALID,24.2263,VALID,159,VALID,0,
2016-04-08, 09:34:04,VALID,919.2,VALID,0,VALID,101.308,VALID,611.34,VALID,24.2458,VALID,88,VALID,0,
2016-04-08, 09:35:04,VALID,919.191,VALID,0,VALID,101.78,VALID,409.458,VALID,24.3044,VALID,114,VALID,0,
2016-04-08, 09:36:04,VALID,919.207,VALID,0,VALID,98.0219,VALID,384.639,VALID,24.363,VALID,90,VALID,0,
2016-04-08, 09:37:04,VALID,919.17,VALID,0,VALID,98.9062,VALID,603.604,VALID,24.402,VALID,72,VALID,0,
2016-04-08, 09:38:04,VALID,919.19,VALID,0,VALID,92.6855,VALID,553.967,VALID,24.3825,VALID,68,VALID,0,
2016-04-08, 09:39:04,VALID,919.151,VALID,0,VALID,97.534,VALID,625.415,VALID,24.4392,VALID,43,VALID,0,
2016-04-08, 09:40:04,VALID,919.15,VALID,0,VALID,84.8715,VALID,433.847,VALID,24.5564,VALID,55,VALID,0.0347656,
2016-04-08, 09:41:04,VALID,919.117,VALID,0,VALID,86.7773,VALID,379.375,VALID,24.6149,VALID,70,VALID,0,
2016-04-08, 09:42:04,VALID,919.099,VALID,0,VALID,79.84,VALID,597.05,VALID,24.4783,VALID,105,VALID,0.641406,
2016-04-08, 09:43:04,VALID,919.07,VALID,0,VALID,83.8118,VALID,622.407,VALID,24.4216,VALID,108,VALID,0,
2016-04-08, 09:44:04,VALID,919.073,VALID,0,VALID,82.8665,VALID,787.973,VALID,24.4587,VALID,138,VALID,0,
2016-04-08, 09:45:04,VALID,919.078,VALID,0,VALID,83.9414,VALID,565.57,VALID,24.5954,VALID,138,VALID,0,
2016-04-08, 09:46:04,VALID,919.049,VALID,0,VALID,82.4244,VALID,723.616,VALID,24.8688,VALID,169,VALID,0,
2016-04-08, 09:47:04,VALID,919.02,VALID,0,VALID,81.8221,VALID,726.732,VALID,25.1226,VALID,156,VALID,0,
2016-04-08, 09:48:04,VALID,919.002,VALID,0,VALID,79.2988,VALID,704.169,VALID,25.4741,VALID,167,VALID,0,
2016-04-08, 09:49:04,VALID,919.008,VALID,0,VALID,78.5974,VALID,713.946,VALID,25.9058,VALID,47,VALID,0,
2016-04-08, 09:50:04,VALID,919.033,VALID,0,VALID,74.092,VALID,583.62,VALID,26.0035,VALID,116,VALID,0.0164062,
2016-04-08, 09:51:04,VALID,919.03,VALID,0,VALID,73.3678,VALID,536.346,VALID,25.8452,VALID,79,VALID,0.549219,
2016-04-08, 09:52:04,VALID,919.048,VALID,0,VALID,75.3575,VALID,507.552,VALID,25.6909,VALID,142,VALID,0,
2016-04-08, 09:53:04,VALID,919.01,VALID,0,VALID,75.2889,VALID,289.769,VALID,25.6909,VALID,344,VALID,0,
2016-04-08, 09:54:04,VALID,919.023,VALID,0,VALID,75.7615,VALID,466.187,VALID,25.7085,VALID,344,VALID,0,
2016-04-08, 09:55:04,VALID,919.038,VALID,0,VALID,75.9673,VALID,731.245,VALID,25.7476,VALID,344,VALID,0,
2016-04-08, 09:56:04,VALID,919.043,VALID,0,VALID,75.7844,VALID,783.246,VALID,25.8062,VALID,344,VALID,0,
2016-04-08, 09:57:04,VALID,919.016,VALID,0,VALID,76.1808,VALID,789.907,VALID,26.0601,VALID,344,VALID,0,
2016-04-08, 09:58:04,VALID,919.029,VALID,0,VALID,77.37,VALID,800.222,VALID,26.3922,VALID,322,VALID,0,
2016-04-08, 09:59:04,VALID,919.054,VALID,0,VALID,76.5696,VALID,802.478,VALID,26.314,VALID,249,VALID,0,
2016-04-08, 10:00:04,VALID,919.068,VALID,0,VALID,78.2162,VALID,778.196,VALID,26.314,VALID,213,VALID,0.155078,
2016-04-08, 10:01:04,VALID,919.048,VALID,0,VALID,77.8351,VALID,789.8,VALID,26.3316,VALID,62,VALID,1.67773,
2016-04-08, 10:02:04,VALID,919.069,VALID,0,VALID,76.1427,VALID,780.775,VALID,26.312,VALID,43,VALID,0.852344,
2016-04-08, 10:03:04,VALID,919.036,VALID,0,VALID,77.8351,VALID,784.535,VALID,26.273,VALID,6,VALID,1.26328,
2016-04-08, 10:04:04,VALID,919.037,VALID,0,VALID,75.6243,VALID,780.99,VALID,26.3336,VALID,21,VALID,0.933984,
2016-04-08, 10:05:04,VALID,919.012,VALID,0,VALID,73.7184,VALID,793.56,VALID,26.4683,VALID,348,VALID,0.430469,
2016-04-08, 10:06:04,VALID,919.003,VALID,0,VALID,73.7794,VALID,804.627,VALID,26.4683,VALID,15,VALID,0.0277344,
2016-04-08, 10:07:04,VALID,919.069,VALID,0,VALID,73.8328,VALID,820.313,VALID,26.4097,VALID,334,VALID,0,
2016-04-08, 10:08:04,VALID,919.05,VALID,0,VALID,75.9445,VALID,835.355,VALID,26.4488,VALID,2,VALID,0,
2016-04-08, 10:09:04,VALID,919.06,VALID,0,VALID,74.4045,VALID,843.521,VALID,26.4878,VALID,69,VALID,0,
2016-04-08, 10:10:04,VALID,919.067,VALID,0,VALID,76.3485,VALID,767.56,VALID,26.5464,VALID,51,VALID,0,
2016-04-08, 10:11:04,VALID,919.053,VALID,0,VALID,73.4364,VALID,649.697,VALID,26.7027,VALID,359,VALID,0,
2016-04-08, 10:12:05,VALID,919.103,VALID,0,VALID,72.6969,VALID,762.402,VALID,26.8179,VALID,345,VALID,0,
2016-04-08, 10:13:04,VALID,919.102,VALID,0,VALID,72.7808,VALID,802.156,VALID,26.9351,VALID,315,VALID,0.00429688,
2016-04-08, 10:14:04,VALID,919.064,VALID,0,VALID,73.7489,VALID,827.512,VALID,27.0348,VALID,319,VALID,0,
2016-04-08, 10:15:04,VALID,919.059,VALID,0,VALID,70.57,VALID,658.829,VALID,27.0153,VALID,127,VALID,0.598437,
2016-04-08, 10:16:04,VALID,919.078,VALID,0,VALID,70.0287,VALID,325.869,VALID,27.0544,VALID,44,VALID,0.798437,
2016-04-08, 10:17:04,VALID,919.07,VALID,0,VALID,69.8762,VALID,455.013,VALID,27.1325,VALID,26,VALID,0,
2016-04-08, 10:18:04,VALID,919.044,VALID,0,VALID,67.7569,VALID,339.621,VALID,26.9176,VALID,140,VALID,0.00195313,
2016-04-08, 10:19:04,VALID,919.026,VALID,0,VALID,69.6323,VALID,335.968,VALID,26.566,VALID,165,VALID,0,
2016-04-08, 10:20:04,VALID,919.008,VALID,0,VALID,69.2054,VALID,366.697,VALID,26.566,VALID,166,VALID,0,
2016-04-08, 10:21:04,VALID,919.05,VALID,0,VALID,69.7619,VALID,372.821,VALID,26.6441,VALID,165,VALID,0,
2016-04-08, 10:22:04,VALID,919.019,VALID,0,VALID,71.1112,VALID,752.41,VALID,26.7398,VALID,97,VALID,0,
2016-04-08, 10:23:04,VALID,919.044,VALID,0,VALID,67.6807,VALID,865.116,VALID,26.7788,VALID,114,VALID,0,
2016-04-08, 10:24:04,VALID,919.032,VALID,0,VALID,68.8547,VALID,860.496,VALID,26.9546,VALID,111,VALID,0,
2016-04-08, 10:25:04,VALID,919.04,VALID,0,VALID,67.6578,VALID,859.529,VALID,27.2107,VALID,80,VALID,0,
2016-04-08, 10:26:04,VALID,919.041,VALID,0,VALID,67.0937,VALID,855.554,VALID,27.404,VALID,198,VALID,0,
2016-04-08, 10:27:04,VALID,919.019,VALID,0,VALID,65.9044,VALID,865.116,VALID,27.5994,VALID,216,VALID,0.0195313,
2016-04-08, 10:28:04,VALID,919.019,VALID,0,VALID,65.8663,VALID,855.232,VALID,27.7383,VALID,194,VALID,0,
2016-04-08, 10:29:04,VALID,919.04,VALID,0,VALID,65.104,VALID,834.495,VALID,27.8339,VALID,194,VALID,0,
2016-04-08, 10:30:04,VALID,919.023,VALID,0,VALID,63.9986,VALID,643.68,VALID,27.9511,VALID,192,VALID,0,
2016-04-08, 10:31:04,VALID,919,VALID,0,VALID,63.2057,VALID,574.166,VALID,28.0879,VALID,192,VALID,0,
2016-04-08, 10:32:04,VALID,919.003,VALID,0,VALID,63.038,VALID,861.785,VALID,28.2051,VALID,192,VALID,0,
2016-04-08, 10:33:04,VALID,918.99,VALID,0,VALID,63.2744,VALID,865.009,VALID,28.127,VALID,193,VALID,0,
2016-04-08, 10:34:04,VALID,918.953,VALID,0,VALID,64.4407,VALID,864.364,VALID,28.3029,VALID,287,VALID,0,
2016-04-08, 10:35:04,VALID,918.981,VALID,0,VALID,63.6327,VALID,856.736,VALID,28.3029,VALID,53,VALID,0.297656,
2016-04-08, 10:36:04,VALID,918.965,VALID,0,VALID,64.1968,VALID,848.57,VALID,28.0097,VALID,85,VALID,0,
2016-04-08, 10:37:04,VALID,918.972,VALID,0,VALID,64.8905,VALID,852.008,VALID,27.9511,VALID,85,VALID,0,
2016-04-08, 10:38:04,VALID,918.97,VALID,0,VALID,66.8802,VALID,814.404,VALID,28.1639,VALID,67,VALID,0,
2016-04-08, 10:39:04,VALID,918.93,VALID,0,VALID,65.4394,VALID,841.801,VALID,28.3593,VALID,60,VALID,0,
2016-04-08, 10:40:04,VALID,918.935,VALID,0,VALID,65.0659,VALID,716.203,VALID,28.2638,VALID,53,VALID,0.714453,
2016-04-08, 10:41:04,VALID,918.966,VALID,0,VALID,67.5206,VALID,844.595,VALID,28.1639,VALID,29,VALID,1.82344,
2016-04-08, 10:42:04,VALID,918.98,VALID,0,VALID,66.0188,VALID,637.771,VALID,28.4201,VALID,29,VALID,0.45625,
2016-04-08, 10:43:04,VALID,918.935,VALID,0,VALID,65.5766,VALID,437.5,VALID,28.5548,VALID,52,VALID,0.968359,
2016-04-08, 10:44:04,VALID,918.949,VALID,0,VALID,66.339,VALID,698.582,VALID,28.4006,VALID,8,VALID,1.22578,
2016-04-08, 10:45:04,VALID,918.984,VALID,0,VALID,64.921,VALID,936.779,VALID,28.3224,VALID,340,VALID,0,
2016-04-08, 10:46:04,VALID,918.956,VALID,0,VALID,63.221,VALID,429.765,VALID,28.4201,VALID,62,VALID,0.764063,
2016-04-08, 10:47:04,VALID,918.983,VALID,0,VALID,64.1206,VALID,425.467,VALID,28.2442,VALID,80,VALID,0,
2016-04-08, 10:48:04,VALID,918.987,VALID,0,VALID,66.4838,VALID,421.062,VALID,27.9902,VALID,103,VALID,0,
2016-04-08, 10:49:04,VALID,919.004,VALID,0,VALID,64.7609,VALID,373.68,VALID,27.912,VALID,163,VALID,0,
2016-04-08, 10:50:04,VALID,919,VALID,0,VALID,65.3098,VALID,368.631,VALID,28.0097,VALID,260,VALID,0,
2016-04-08, 10:51:04,VALID,919.012,VALID,0,VALID,65.8816,VALID,366.912,VALID,27.8534,VALID,306,VALID,0,
2016-04-08, 10:52:04,VALID,918.985,VALID,0,VALID,66.4609,VALID,744.89,VALID,27.7731,VALID,2,VALID,0,
2016-04-08, 10:53:04,VALID,919,VALID,0,VALID,67.5511,VALID,637.878,VALID,27.8339,VALID,358,VALID,0.553906,
2016-04-08, 10:54:04,VALID,918.968,VALID,0,VALID,68.4811,VALID,814.726,VALID,27.8534,VALID,39,VALID,0.362891,
2016-04-08, 10:55:04,VALID,918.988,VALID,0,VALID,68.0695,VALID,541.933,VALID,28.0097,VALID,55,VALID,0,
2016-04-08, 10:56:04,VALID,918.995,VALID,0,VALID,66.7811,VALID,392.16,VALID,28.2051,VALID,25,VALID,0,
2016-04-08, 10:57:04,VALID,918.975,VALID,0,VALID,65.9426,VALID,382.92,VALID,28.381,VALID,7,VALID,0.00429688,
2016-04-08, 10:58:04,VALID,918.942,VALID,0,VALID,64.4865,VALID,521.627,VALID,28.4397,VALID,20,VALID,0,
2016-04-08, 10:59:04,VALID,918.949,VALID,0,VALID,65.8053,VALID,381.524,VALID,28.3202,VALID,14,VALID,0,
2016-04-08, 11:00:04,VALID,918.946,VALID,0,VALID,65.1268,VALID,372.391,VALID,28.0858,VALID,21,VALID,0.272656,
2016-04-08, 11:01:04,VALID,918.937,VALID,0,VALID,66.2399,VALID,364.655,VALID,27.7731,VALID,37,VALID,0,
2016-04-08, 11:02:04,VALID,918.945,VALID,0,VALID,64.799,VALID,374.647,VALID,27.7145,VALID,16,VALID,0,
2016-04-08, 11:03:04,VALID,918.923,VALID,0,VALID,67.1089,VALID,556.115,VALID,27.5191,VALID,41,VALID,0,
2016-04-08, 11:04:04,VALID,918.927,VALID,0,VALID,67.6045,VALID,1008.34,VALID,27.5191,VALID,42,VALID,0,
2016-04-08, 11:05:04,VALID,918.924,VALID,0,VALID,68.748,VALID,1029.18,VALID,27.7145,VALID,42,VALID,0,
2016-04-08, 11:06:04,VALID,918.936,VALID,0,VALID,66.0416,VALID,864.579,VALID,28.0858,VALID,22,VALID,0,
2016-04-08, 11:07:04,VALID,918.897,VALID,0,VALID,64.8676,VALID,771.857,VALID,28.4592,VALID,8,VALID,0,
2016-04-08, 11:08:04,VALID,918.883,VALID,0,VALID,63.2515,VALID,747.79,VALID,28.7111,VALID,355,VALID,0,
2016-04-08, 11:09:04,VALID,918.91,VALID,0,VALID,63.2057,VALID,480.799,VALID,28.7502,VALID,356,VALID,0,
2016-04-08, 11:10:04,VALID,918.868,VALID,0,VALID,62.5044,VALID,949.565,VALID,28.6916,VALID,355,VALID,0,
2016-04-08, 11:11:04,VALID,918.841,VALID,0,VALID,62.8093,VALID,484.345,VALID,28.6525,VALID,88,VALID,0,
2016-04-08, 11:12:04,VALID,918.836,VALID,0,VALID,64.1434,VALID,453.939,VALID,28.418,VALID,101,VALID,0,
2016-04-08, 11:13:04,VALID,918.819,VALID,0,VALID,65.1726,VALID,382.92,VALID,28.3593,VALID,75,VALID,0,
2016-04-08, 11:14:04,VALID,918.824,VALID,0,VALID,63.6098,VALID,378.73,VALID,28.3615,VALID,84,VALID,0,
2016-04-08, 11:15:04,VALID,918.763,VALID,0,VALID,64.578,VALID,390.656,VALID,28.2421,VALID,54,VALID,0,
2016-04-08, 11:16:04,VALID,918.776,VALID,0,VALID,64.3721,VALID,598.447,VALID,28.0097,VALID,30,VALID,0,
2016-04-08, 11:17:04,VALID,918.728,VALID,0,VALID,66.6896,VALID,406.88,VALID,27.8513,VALID,20,VALID,0,
2016-04-08, 11:18:04,VALID,918.72,VALID,0,VALID,65.386,VALID,439.005,VALID,27.9294,VALID,23,VALID,0,
2016-04-08, 11:19:04,VALID,918.678,VALID,0,VALID,65.165,VALID,462.212,VALID,27.8925,VALID,133,VALID,0,
2016-04-08, 11:20:04,VALID,918.691,VALID,0,VALID,64.5932,VALID,804.627,VALID,27.8317,VALID,139,VALID,0,
2016-04-08, 11:21:04,VALID,918.644,VALID,0,VALID,65.4851,VALID,930.333,VALID,28.0662,VALID,125,VALID,0,
2016-04-08, 11:22:04,VALID,918.636,VALID,0,VALID,64.5322,VALID,900.357,VALID,28.2421,VALID,107,VALID,0,
2016-04-08, 11:23:04,VALID,918.654,VALID,0,VALID,61.5667,VALID,888.538,VALID,28.4375,VALID,107,VALID,0,
2016-04-08, 11:24:04,VALID,918.618,VALID,0,VALID,63.747,VALID,889.935,VALID,28.1444,VALID,99,VALID,0,
2016-04-08, 11:25:04,VALID,918.621,VALID,0,VALID,63.9833,VALID,896.489,VALID,28.1053,VALID,90,VALID,0,
2016-04-08, 11:26:04,VALID,918.579,VALID,0,VALID,61.6201,VALID,895.2,VALID,28.3029,VALID,90,VALID,0,
2016-04-08, 11:27:04,VALID,918.561,VALID,0,VALID,61.864,VALID,892.406,VALID,28.3419,VALID,90,VALID,0,
2016-04-08, 11:28:04,VALID,918.545,VALID,0,VALID,62.8322,VALID,896.059,VALID,28.457,VALID,91,VALID,0,
2016-04-08, 11:29:04,VALID,918.519,VALID,0,VALID,62.1156,VALID,799.47,VALID,28.6547,VALID,69,VALID,0.157422,
2016-04-08, 11:30:04,VALID,918.513,VALID,0,VALID,60.4079,VALID,908.093,VALID,28.7307,VALID,52,VALID,0,
2016-04-08, 11:31:04,VALID,918.494,VALID,0,VALID,60.4384,VALID,900.787,VALID,29.0043,VALID,40,VALID,0.00234375,
2016-04-08, 11:32:04,VALID,918.484,VALID,0,VALID,56.1388,VALID,890.365,VALID,29.2388,VALID,29,VALID,0,
2016-04-08, 11:33:04,VALID,918.469,VALID,0,VALID,57.4196,VALID,878.009,VALID,29.1802,VALID,5,VALID,0,
2016-04-08, 11:34:04,VALID,918.461,VALID,0,VALID,56.1617,VALID,883.596,VALID,29.1607,VALID,357,VALID,0,
2016-04-08, 11:35:04,VALID,918.449,VALID,0,VALID,57.2747,VALID,885.315,VALID,28.9674,VALID,357,VALID,0,
2016-04-08, 11:36:04,VALID,918.454,VALID,0,VALID,57.9608,VALID,884.993,VALID,28.9088,VALID,357,VALID,0,
2016-04-08, 11:37:04,VALID,918.388,VALID,0,VALID,57.877,VALID,869.199,VALID,29.026,VALID,341,VALID,0,
2016-04-08, 11:38:04,VALID,918.37,VALID,0,VALID,58.868,VALID,895.415,VALID,29.1824,VALID,338,VALID,0,
2016-04-08, 11:39:04,VALID,918.356,VALID,0,VALID,58.9061,VALID,573.843,VALID,29.4952,VALID,356,VALID,0,
2016-04-08, 11:40:04,VALID,918.343,VALID,0,VALID,58.4259,VALID,351.333,VALID,29.6712,VALID,1,VALID,0,
2016-04-08, 11:41:04,VALID,918.357,VALID,0,VALID,58.0218,VALID,313.298,VALID,29.6494,VALID,328,VALID,0,
2016-04-08, 11:42:04,VALID,918.324,VALID,0,VALID,57.633,VALID,330.274,VALID,29.3366,VALID,136,VALID,0.251953,
2016-04-08, 11:43:04,VALID,918.346,VALID,0,VALID,57.5797,VALID,367.986,VALID,29.1433,VALID,170,VALID,0,
2016-04-08, 11:44:04,VALID,918.318,VALID,0,VALID,57.7779,VALID,418.054,VALID,29.1216,VALID,170,VALID,0,
2016-04-08, 11:45:04,VALID,918.284,VALID,0,VALID,58.4259,VALID,356.275,VALID,29.0065,VALID,242,VALID,0,
2016-04-08, 11:46:04,VALID,918.293,VALID,0,VALID,60.7434,VALID,360.895,VALID,28.9283,VALID,242,VALID,0,
2016-04-08, 11:47:04,VALID,918.275,VALID,0,VALID,60.8196,VALID,362.077,VALID,28.9261,VALID,242,VALID,0,
2016-04-08, 11:48:04,VALID,918.231,VALID,0,VALID,61.2008,VALID,376.796,VALID,29.0651,VALID,246,VALID,0,
2016-04-08, 11:49:04,VALID,918.221,VALID,0,VALID,60.2555,VALID,339.944,VALID,28.8697,VALID,295,VALID,0,
2016-04-08, 11:50:04,VALID,918.243,VALID,0,VALID,60.0801,VALID,318.133,VALID,28.596,VALID,322,VALID,0,
2016-04-08, 11:51:04,VALID,918.212,VALID,0,VALID,62.3367,VALID,313.513,VALID,28.4397,VALID,301,VALID,0,
2016-04-08, 11:52:04,VALID,918.186,VALID,0,VALID,64.1282,VALID,317.596,VALID,28.4397,VALID,301,VALID,0,
2016-04-08, 11:53:04,VALID,918.183,VALID,0,VALID,62.7178,VALID,326.191,VALID,28.5178,VALID,299,VALID,0,
2016-04-08, 11:54:04,VALID,918.165,VALID,0,VALID,63.3582,VALID,341.77,VALID,28.5569,INVALID,360,VALID,0,
2016-04-08, 11:55:04,VALID,918.167,VALID,0,VALID,61.3151,VALID,388.077,VALID,28.6547,VALID,332,VALID,0,
2016-04-08, 11:56:04,VALID,918.135,VALID,0,VALID,62.2452,VALID,467.154,VALID,28.8306,VALID,332,VALID,0,
2016-04-08, 11:57:04,VALID,918.116,VALID,0,VALID,62.5349,VALID,975.673,VALID,29.026,VALID,329,VALID,0,